{"data":{"norad_id":57990,"intl_designator":"2023-152E","name":"YAOGAN-39 03C","alt_names":[],"object_type":"PAYLOAD","status":"ACTIVE","operator":null,"country":"PRC","launch_date":"2023-10-05","launch_site_code":"XICLF","launch_vehicle":null,"mission":null,"orbit_class":"UNKNOWN","rcs_meters":null,"size_class":null,"mass_kg":null,"dimensions":null,"purposes":[],"wikipedia_slug":null,"has_3d_model":false,"image_url":null,"decayed_at":null,"tle_current":{"epoch":"2026-05-25T04:10:12.931392Z","epoch_age_seconds":63333,"freshness":"FRESH","line1":"1 57990U 23152E   26145.17376078  .00003872  00000+0  18870-3 0  9996","line2":"2 57990  34.9904  79.6439 0011126 292.7041  67.2496 15.17754434146663","mean_motion":15.17754434,"eccentricity":0.0011126,"inclination_deg":34.9904,"raan_deg":79.6439,"arg_perigee_deg":292.7041,"mean_anomaly_deg":67.2496,"bstar":0.0001887,"rev_number":14666,"period_min":94.87700827893,"perigee_km":504.96231694059,"apogee_km":520.29564940635,"semimajor_km":6890.7659831735,"source":"CELESTRAK","updated_at":"2026-05-25T13:38:00.395091Z"}}}